Date,TemperatureHighF,TemperatureAvgF,TemperatureLowF,DewpointHighF,DewpointAvgF,DewpointLowF,HumidityHigh,HumidityAvg,HumidityLow,PressureMaxIn,PressureMinIn,WindSpeedMaxMPH,WindSpeedAvgMPH,GustSpeedMaxMPH,PrecipitationSumIn
2014-1-1,49.9,34.2,24.6,32.7,26.0,23.0,95,75,39,30.43,30.17,5,0,11,0.00
2014-1-2,43.4,36.6,29.1,40.4,34.4,26.7,98,92,73,30.18,29.66,15,1,15,0.38
2014-1-3,36.2,25.2,16.4,29.0,11.4,7.3,86,57,33,30.52,29.76,15,2,26,0.00
2014-1-4,37.0,26.1,12.4,26.8,16.1,10.7,93,69,41,30.55,30.32,8,1,8,0.00
2014-1-5,40.7,36.0,32.0,40.1,34.2,25.5,98,93,76,30.33,29.78,9,0,9,0.57
2014-1-6,42.4,33.1,9.8,41.9,22.6,-7.4,99,68,37,30.24,29.68,23,4,23,0.22
2014-1-7,25.4,12.8,2.6,8.8,-1.5,-8.5,86,55,30,30.53,30.23,14,2,14,0.00
2014-1-8,44.4,23.4,8.6,18.8,12.6,6.3,92,68,30,30.63,30.51,7,0,7,0.00
2014-1-9,52.5,34.4,20.1,27.7,19.3,6.6,89,61,16,30.61,30.49,6,0,6,0.00
2014-1-10,38.7,36.7,34.1,37.9,34.5,26.3,98,92,65,30.49,30.12,6,0,6,0.61
2014-1-11,58.4,47.9,38.2,58.4,46.6,37.7,100,95,71,30.12,29.57,16,2,16,1.39
2014-1-12,57.5,43.8,30.8,42.1,33.5,29.1,95,70,36,30.17,29.71,16,1,16,0.00
2014-1-13,57.7,43.9,28.6,43.1,36.0,27.8,98,76,50,30.17,29.97,17,1,17,0.04
2014-1-14,57.6,44.5,29.7,48.1,41.7,29.0,98,91,56,29.97,29.79,11,0,11,0.29
2014-1-15,56.9,37.2,25.8,42.6,32.2,25.1,98,84,46,29.99,29.84,11,1,11,0.04
2014-1-16,42.5,31.9,24.0,31.6,23.3,18.4,96,73,39,30.07,29.93,11,1,11,0.00
2014-1-17,51.7,36.2,23.8,31.3,24.9,20.8,93,67,40,30.02,29.85,14,1,14,0.00
2014-1-18,38.4,29.8,23.6,26.7,15.7,5.8,87,57,38,30.10,29.90,12,2,17,0.00
2014-1-19,50.9,36.5,22.1,30.4,22.8,17.3,87,59,43,30.00,29.93,16,2,16,0.00
2014-1-20,63.9,40.7,26.0,31.2,26.9,22.9,90,64,27,29.93,29.79,16,1,16,0.00
2014-1-21,46.7,33.6,25.7,36.0,28.6,19.2,96,83,61,29.88,29.57,13,1,13,0.16
2014-1-22,30.5,22.8,17.6,19.0,9.4,0.7,82,58,29,30.12,29.88,12,1,12,0.00
2014-1-23,35.7,23.5,13.1,16.8,10.5,0.6,92,61,33,30.49,30.11,18,2,18,0.00
2014-1-24,27.0,17.0,7.6,0.5,-2.2,-5.0,61,43,25,30.65,30.26,13,2,13,0.00
2014-1-25,38.1,29.1,18.1,20.2,8.0,-1.8,53,41,29,30.26,29.68,22,3,22,0.00
2014-1-26,52.4,37.3,19.2,30.1,18.1,11.7,83,49,24,29.98,29.83,14,2,14,0.00
2014-1-27,60.4,46.2,29.8,39.5,30.4,6.8,69,55,34,30.12,29.79,18,2,18,0.00
2014-1-28,29.6,20.2,17.0,15.7,9.5,-0.6,90,67,37,30.37,30.12,12,2,12,0.00
2014-1-29,27.9,18.4,6.6,14.6,6.6,-1.0,88,64,29,30.41,30.22,6,1,9,0.00
2014-1-30,36.7,16.8,-0.5,13.6,5.3,-3.2,91,66,27,30.48,30.26,6,0,6,0.01
2014-1-31,54.7,29.4,11.0,26.1,16.5,8.2,90,65,24,30.27,30.15,6,0,6,0.08
2014-2-1,59.7,40.5,20.2,36.1,26.1,18.4,95,63,25,30.28,30.09,7,0,7,0.00
2014-2-2,64.2,49.3,33.6,50.1,41.9,31.6,97,77,52,30.12,30.00,11,1,11,0.00
2014-2-3,58.2,49.8,37.7,56.1,47.3,36.1,98,91,72,30.27,29.84,15,1,15,0.36
2014-2-4,41.2,37.3,32.6,36.8,34.2,30.3,97,89,77,30.41,30.13,10,1,10,0.13
2014-2-5,57.9,41.7,35.5,48.1,36.9,27.6,98,85,52,30.13,29.81,19,2,19,0.05
2014-2-6,41.3,35.9,29.3,30.0,24.7,21.9,79,64,49,30.35,30.13,7,1,8,0.00
2014-2-7,48.2,35.1,25.4,31.5,27.4,23.8,95,75,48,30.38,30.26,8,0,8,0.00
2014-2-8,49.9,36.5,29.7,33.6,29.3,25.6,91,76,51,30.31,30.14,6,0,6,0.00
2014-2-9,54.7,41.2,28.0,41.0,34.6,26.5,95,79,59,30.20,29.98,13,1,13,0.00
2014-2-10,39.7,34.8,31.3,33.3,31.2,28.4,95,87,65,30.27,30.05,4,0,7,0.01
2014-2-11,35.7,29.8,20.3,32.0,22.0,17.8,93,73,57,30.42,30.26,12,1,12,0.00
2014-2-12,25.3,22.4,19.5,21.8,17.6,13.0,94,83,60,30.47,29.91,17,2,17,0.00
2014-2-13,39.2,32.4,23.3,35.9,29.8,21.8,97,91,67,29.91,29.51,17,2,17,0.30
2014-2-14,56.4,42.3,28.3,34.0,28.1,24.3,86,60,32,29.80,29.69,17,2,17,0.35
2014-2-15,43.2,37.1,28.9,37.5,27.4,15.5,98,70,39,30.08,29.57,28,2,28,0.17
2014-2-16,50.2,36.1,28.4,31.5,24.3,16.6,93,64,42,30.19,30.03,13,1,13,0.00
2014-2-17,45.1,35.7,26.8,28.6,25.3,22.0,94,67,47,30.39,30.19,10,1,10,0.00
2014-2-18,61.3,43.2,27.6,34.7,29.4,21.9,94,64,23,30.24,30.08,12,1,12,0.00
2014-2-19,71.8,51.8,38.4,58.3,45.7,33.4,98,82,41,30.09,29.90,20,2,20,0.11
2014-2-20,65.9,51.3,41.1,50.0,43.8,39.8,96,78,55,30.20,29.93,8,0,8,0.00
2014-2-21,65.4,55.8,34.7,61.2,46.8,24.1,99,75,28,30.03,29.78,24,3,24,0.22
2014-2-22,65.5,44.6,30.8,37.5,28.8,18.3,94,63,18,30.22,30.03,9,0,9,0.00
2014-2-23,69.6,49.4,29.0,40.3,33.8,26.5,93,61,25,30.12,29.88,13,1,13,0.00
2014-2-24,58.7,45.1,29.7,40.1,27.4,17.9,92,55,23,30.16,29.89,17,1,17,0.00
2014-2-25,56.2,38.2,25.2,29.4,23.8,19.4,88,61,27,30.14,29.96,11,1,11,0.00
2014-2-26,49.6,37.4,23.7,25.2,22.1,16.3,78,55,36,30.00,29.80,8,1,11,0.00
2014-2-27,52.6,33.3,15.8,20.1,12.4,0.6,93,52,12,30.04,29.79,13,2,19,0.00
2014-2-28,43.7,31.7,22.6,21.0,16.0,11.2,77,53,33,30.34,30.04,11,1,11,0.00
2014-3-1,53.2,35.7,23.8,32.5,22.8,16.1,89,62,38,30.41,30.24,10,1,10,0.00
2014-3-2,71.0,50.2,26.6,48.5,38.5,24.8,94,68,41,30.27,29.89,18,2,18,0.00
2014-3-3,61.0,37.8,19.8,48.8,33.3,17.3,94,85,64,30.31,29.80,16,2,16,0.32
2014-3-4,33.3,23.8,11.2,22.1,15.6,9.3,94,73,48,30.42,30.26,12,1,12,0.03
2014-3-5,49.2,34.5,25.5,31.0,25.3,20.3,91,71,43,30.33,30.15,6,0,6,0.07
2014-3-6,38.8,32.6,26.6,29.5,23.4,18.0,93,70,50,30.43,30.18,13,3,18,0.00
2014-3-7,40.9,32.6,27.3,37.0,30.9,26.6,97,94,85,30.18,29.97,10,2,13,0.50
2014-3-8,50.6,28.6,24.7,44.8,27.8,24.0,98,97,80,30.11,30.00,1,0,1,0.00
2014-3-15,72.0,60.8,44.3,47.2,36.0,32.3,68,41,25,29.92,29.82,5,2,8,0.00
2014-3-16,52.9,45.0,40.1,40.7,35.9,30.8,96,72,44,29.92,29.71,5,2,10,0.43